Hourly Weather Larnaka

Today, 29 September, Tuesday

Time Temperature Precipitation Wind Pressure Humidity
00:00 +28°C° 0 mm 2 mps 760 mmHg 44%
01:00 +27°C° 0 mm 2 mps 759 mmHg 43%
02:00 +27°C° 0 mm 1 mps 759 mmHg 44%
03:00 +27°C° 0 mm 1 mps 759 mmHg 44%
04:00 +27°C° 0 mm 1 mps 759 mmHg 44%
05:00 +27°C° 0 mm 1 mps 759 mmHg 44%
06:00 +30°C° 0 mm 1 mps 759 mmHg 37%
07:00 +34°C° 0 mm 2 mps 759 mmHg 31%
08:00 +38°C° 0 mm 2 mps 759 mmHg 24%
09:00 +39°C° 0 mm 2 mps 759 mmHg 24%
10:00 +39°C° 0 mm 3 mps 759 mmHg 24%
11:00 +41°C° 0 mm 4 mps 759 mmHg 25%
12:00 +42°C° 0 mm 4 mps 759 mmHg 23%
13:00 +42°C° 0 mm 5 mps 758 mmHg 21%
14:00 +42°C° 0 mm 6 mps 758 mmHg 19%
15:00 +41°C° 0 mm 6 mps 757 mmHg 18%
16:00 +41°C° 0 mm 6 mps 757 mmHg 18%
17:00 +40°C° 0 mm 6 mps 757 mmHg 18%
18:00 +39°C° 0 mm 6 mps 757 mmHg 20%
19:00 +36°C° 0 mm 5 mps 757 mmHg 22%
20:00 +35°C° 0 mm 5 mps 757 mmHg 25%
21:00 +33°C° 0 mm 5 mps 756 mmHg 26%
22:00 +32°C° 0 mm 5 mps 756 mmHg 28%
23:00 +30°C° 0 mm 5 mps 756 mmHg 29%

Tomorrow, 30 September, Wednesday

Time Temperature Precipitation Wind Pressure Humidity
00:00 +30°C° 0 mm 5 mps 756 mmHg 30%
01:00 +30°C° 0 mm 6 mps 755 mmHg 31%
02:00 +30°C° 0 mm 6 mps 755 mmHg 31%
03:00 +29°C° 0 mm 6 mps 755 mmHg 34%
04:00 +28°C° 0 mm 7 mps 755 mmHg 37%
05:00 +27°C° 0 mm 7 mps 755 mmHg 40%
06:00 +31°C° 0 mm 8 mps 755 mmHg 35%
07:00 +33°C° 0 mm 8 mps 755 mmHg 29%
08:00 +35°C° 0 mm 8 mps 755 mmHg 24%
09:00 +37°C° 0 mm 9 mps 755 mmHg 23%
10:00 +38°C° 0 mm 10 mps 755 mmHg 21%
11:00 +39°C° 0 mm 10 mps 755 mmHg 20%
12:00 +38°C° 0 mm 11 mps 755 mmHg 23%
13:00 +37°C° 0 mm 12 mps 754 mmHg 26%
14:00 +36°C° 0 mm 12 mps 754 mmHg 29%
15:00 +33°C° 0 mm 12 mps 754 mmHg 35%
16:00 +31°C° 0 mm 11 mps 754 mmHg 42%
17:00 +29°C° 0 mm 11 mps 754 mmHg 49%
18:00 +27°C° 0 mm 10 mps 754 mmHg 59%
19:00 +24°C° 0 mm 10 mps 754 mmHg 70%
20:00 +22°C° 0 mm 10 mps 754 mmHg 80%
21:00 +21°C° 0 mm 9 mps 754 mmHg 80%
22:00 +21°C° 0 mm 9 mps 754 mmHg 80%
23:00 +21°C° 0 mm 8 mps 754 mmHg 80%

Day after tomorrow, 1 October, Thursday

Time Temperature Precipitation Wind Pressure Humidity
00:00 +21°C° 0 mm 8 mps 754 mmHg 81%
01:00 +21°C° 0 mm 8 mps 754 mmHg 82%
02:00 +20°C° 0 mm 8 mps 754 mmHg 83%
03:00 +20°C° 0 mm 8 mps 754 mmHg 84%
04:00 +20°C° 0 mm 7 mps 754 mmHg 86%
05:00 +20°C° 0 mm 7 mps 754 mmHg 87%
06:00 +22°C° 0 mm 6 mps 755 mmHg 78%
07:00 +24°C° 0 mm 6 mps 755 mmHg 70%
08:00 +27°C° 0 mm 6 mps 755 mmHg 61%
09:00 +28°C° 0 mm 7 mps 755 mmHg 55%
10:00 +29°C° 0 mm 7 mps 755 mmHg 49%
11:00 +32°C° 0 mm 7 mps 756 mmHg 43%
12:00 +32°C° 0 mm 8 mps 756 mmHg 44%
13:00 +32°C° 0 mm 8 mps 756 mmHg 44%
14:00 +32°C° 0 mm 9 mps 756 mmHg 44%
15:00 +31°C° 0 mm 9 mps 755 mmHg 48%
16:00 +29°C° 0 mm 8 mps 755 mmHg 52%
17:00 +27°C° 0 mm 8 mps 755 mmHg 56%
18:00 +24°C° 0 mm 8 mps 756 mmHg 63%
19:00 +22°C° 0 mm 7 mps 756 mmHg 71%
20:00 +20°C° 0 mm 6 mps 756 mmHg 79%
21:00 +19°C° 0 mm 5 mps 757 mmHg 80%
22:00 +18°C° 0 mm 4 mps 757 mmHg 81%
23:00 +18°C° 0 mm 4 mps 757 mmHg 81%

2 October, Friday

Time Temperature Precipitation Wind Pressure Humidity
00:00 +18°C° 0 mm 4 mps 757 mmHg 81%
01:00 +18°C° 0 mm 4 mps 757 mmHg 81%
02:00 +18°C° 0 mm 4 mps 757 mmHg 81%
03:00 +18°C° 0 mm 4 mps 757 mmHg 80%
04:00 +17°C° 0 mm 4 mps 757 mmHg 79%
05:00 +17°C° 0 mm 3 mps 757 mmHg 78%
06:00 +20°C° 0 mm 3 mps 758 mmHg 70%
07:00 +24°C° 0 mm 2 mps 758 mmHg 63%
08:00 +26°C° 0 mm 2 mps 758 mmHg 55%
09:00 +28°C° 0 mm 2 mps 758 mmHg 52%
10:00 +29°C° 0 mm 2 mps 759 mmHg 49%
11:00 +30°C° 0 mm 2 mps 759 mmHg 46%
12:00 +30°C° 0 mm 3 mps 759 mmHg 48%
13:00 +30°C° 0 mm 4 mps 759 mmHg 49%
14:00 +30°C° 0 mm 5 mps 759 mmHg 50%
15:00 +29°C° 0 mm 5 mps 759 mmHg 53%
16:00 +28°C° 0 mm 5 mps 759 mmHg 56%
17:00 +27°C° 0 mm 5 mps 759 mmHg 60%
18:00 +25°C° 0 mm 5 mps 759 mmHg 67%
19:00 +22°C° 0 mm 4 mps 759 mmHg 75%
20:00 +21°C° 0 mm 4 mps 760 mmHg 83%
21:00 +20°C° 0 mm 4 mps 760 mmHg 84%
22:00 +19°C° 0 mm 3 mps 759 mmHg 84%
23:00 +19°C° 0 mm 2 mps 759 mmHg 85%

3 October, Saturday

Time Temperature Precipitation Wind Pressure Humidity
00:00 +18°C° 0 mm 2 mps 759 mmHg 86%
01:00 +18°C° 0 mm 2 mps 759 mmHg 86%
02:00 +18°C° 0 mm 1 mps 759 mmHg 86%
03:00 +18°C° 0 mm 1 mps 759 mmHg 86%
04:00 +18°C° 0 mm 1 mps 759 mmHg 85%
05:00 +18°C° 0 mm 1 mps 759 mmHg 85%
06:00 +21°C° 0 mm 1 mps 759 mmHg 77%
07:00 +24°C° 0 mm 1 mps 760 mmHg 70%
08:00 +26°C° 0 mm 1 mps 760 mmHg 62%
09:00 +28°C° 0 mm 2 mps 760 mmHg 56%
10:00 +29°C° 0 mm 3 mps 760 mmHg 50%
11:00 +30°C° 0 mm 3 mps 760 mmHg 44%
12:00 +32°C° 0 mm 4 mps 760 mmHg 43%
13:00 +32°C° 0 mm 5 mps 760 mmHg 43%
14:00 +32°C° 0 mm 6 mps 759 mmHg 43%
15:00 +30°C° 0 mm 7 mps 759 mmHg 46%
16:00 +29°C° 0 mm 7 mps 759 mmHg 48%
17:00 +28°C° 0 mm 7 mps 759 mmHg 51%
18:00 +26°C° 0 mm 6 mps 759 mmHg 60%
19:00 +23°C° 0 mm 6 mps 759 mmHg 69%
20:00 +21°C° 0 mm 5 mps 759 mmHg 77%
21:00 +20°C° 0 mm 4 mps 759 mmHg 78%
22:00 +19°C° 0 mm 3 mps 759 mmHg 79%
23:00 +19°C° 0 mm 2 mps 759 mmHg 80%

4 October, Sunday

Time Temperature Precipitation Wind Pressure Humidity
00:00 +18°C° 0 mm 2 mps 759 mmHg 77%
01:00 +18°C° 0 mm 2 mps 759 mmHg 75%
02:00 +18°C° 0 mm 2 mps 758 mmHg 73%
03:00 +18°C° 0 mm 2 mps 758 mmHg 72%
04:00 +18°C° 0 mm 2 mps 758 mmHg 70%
05:00 +18°C° 0 mm 2 mps 759 mmHg 69%
06:00 +21°C° 0 mm 2 mps 759 mmHg 59%
07:00 +25°C° 0 mm 1 mps 759 mmHg 48%
08:00 +29°C° 0 mm 1 mps 759 mmHg 38%
09:00 +30°C° 0 mm 2 mps 759 mmHg 37%
10:00 +31°C° 0 mm 2 mps 759 mmHg 37%
11:00 +34°C° 0 mm 2 mps 759 mmHg 37%
12:00 +34°C° 0 mm 3 mps 759 mmHg 39%
13:00 +34°C° 0 mm 4 mps 759 mmHg 40%
14:00 +34°C° 0 mm 5 mps 758 mmHg 42%
15:00 +33°C° 0 mm 5 mps 758 mmHg 45%
16:00 +32°C° 0 mm 6 mps 758 mmHg 49%
17:00 +30°C° 0 mm 6 mps 758 mmHg 52%
18:00 +28°C° 0 mm 5 mps 758 mmHg 54%
19:00 +26°C° 0 mm 5 mps 758 mmHg 56%
20:00 +23°C° 0 mm 4 mps 759 mmHg 58%
21:00 +22°C° 0 mm 3 mps 759 mmHg 54%
22:00 +23°C° 0 mm 2 mps 759 mmHg 51%
23:00 +22°C° 0 mm 1 mps 759 mmHg 47%
Show more